Regional Weather Roundup
Issued by NWS

Home | Current Version | Previous Version | Graphics & Text | Print | Product List | Glossary On
Versions: 1 2 3 4 5 6 7 8 9 10 11 12 13 14 15 16 17 18 19 20 21 22 23 24 25 26 27 28 29 30 31 32 33 34 35 36 37 38 39 40 41 42 43 44 45 46 47 48 49
000
ASUS45 KBOI 300410
RWRID
WEATHER ROUNDUP FOR IDAHO
NATIONAL WEATHER SERVICE BOISE ID
900 PM MST THU JAN 29 2015

NOTE: "FAIR" INDICATES FEW OR NO CLOUDS BELOW 12000 FEET
WITH NO SIGNIFICANT WEATHER AND/OR OBSTRUCTIONS TO VISIBILITY

IDZ012-014-300500-
SOUTHWEST IDAHO


CITY           SKY/WX    TMP DP  RH WIND       PRES   REMARKS
BOISE          CLEAR     39  33  79 CALM      30.32F
CALDWELL       CLOUDY    39  30  70 N9        30.34F WCI  33
MOUNTAIN HOME  CLOUDY    37  34  87 NW7       30.31F WCI  32
$$

IDZ016-017-300500-
SOUTHCENTRAL IDAHO


CITY           SKY/WX    TMP DP  RH WIND       PRES   REMARKS
BURLEY         MOCLDY    37  30  75 E8        30.27S WCI  31
JEROME         CLOUDY    35  30  82 NE8       30.29S WCI  29
TWIN FALLS     CLOUDY    37  33  85 W3        30.28S
$$

IDZ019>023-300500-
SOUTHEAST IDAHO


CITY           SKY/WX    TMP DP  RH WIND       PRES   REMARKS
IDAHO FALLS    MOCLDY    32  28  85 N9        30.30F WCI  24
POCATELLO      CLEAR     31  30  96 N7        30.29F WCI  24
REXBURG        MOCLDY    28  26  92 NE7       30.30F WCI  21
$$

IDZ006-010-011-018-031-032-300500-
CENTRAL IDAHO MOUNTAINS


CITY           SKY/WX    TMP DP  RH WIND       PRES   REMARKS
MCCALL         CLEAR     23  21  92 CALM      30.28S
HAILEY         MOCLDY    30  27  86 W7        30.30F WCI  23
STANLEY          N/A     14  10  84 S5        30.31F WCI   6
SALMON         PTCLDY    19  18  93 CALM      30.39S
CHALLIS        CLOUDY    29  25  85 CALM      30.36S
$$

IDZ002-004-006-007-026-300500-
NORTHERN IDAHO


CITY           SKY/WX    TMP DP  RH WIND       PRES   REMARKS
LEWISTON       MOCLDY    36  34  92 SE5       30.39R WCI  32
LOWELL           N/A     34  32  92 CALM      30.41S
COEUR D`ALENE  CLOUDY    30  27  86 E3        30.36S VSB<1/4
MULLAN PASS    CLEAR     31  22  69 S3        30.28F
$$


USA.gov is the U.S. government's official web portal to all federal, state and local government web resources and services.